Regional Weather Roundup
Issued by NWS

Home | Current Version | Previous Version | Text Only | Print | Product List | Glossary Off
Versions: 1 2 3 4 5 6 7 8 9 10 11 12 13 14 15 16 17 18 19 20 21 22 23 24 25 26 27 28 29 30 31 32 33 34 35 36 37 38 39 40 41 42 43 44 45 46 47 48 49 50

970
ASUS44 KLIX 300210
RWRLA
LOUISIANA WEATHER ROUNDUP
NATIONAL WEATHER SERVICE NEW ORLEANS LA
900 PM CDT FRI AUG 29 2014

NOTE: "FAIR" INDICATES FEW OR NO CLOUDS BELOW 12,000 FEET WITH NO
      SIGNIFICANT WEATHER AND/OR OBSTRUCTIONS TO VISIBILITY.
      SKY/WX - SKY CONDITION AND SIGNIFICANT WEATHER.
      TMP - AIR TEMPERATURE.    DP   - DEWPOINT TEMPERATURE.
      RH  - RELATIVE HUMIDITY.  PRES - PRESSURE.
      HX  - HEAT INDEX.         WCI  - WIND CHILL INDEX.

*  THESE STATIONS ARE NOT NWS OR FAA STATIONS AND ARE NOT UNDER
   NWS QUALITY CONTROL.

LAZ040-048-061>063-065-066-069-300300-
SOUTHEAST LOUISIANA

CITY           SKY/WX    TMP DP  RH WIND       PRES   REMARKS
N.O. AUDUBON     N/A     78  77  94 MISG        N/A
N.O. INTL ARPT CLOUDY    79  75  87 S10       29.97R
N.O. LAKEFRONT CLOUDY    78  70  76 SE14      29.97R
N.O. DOWNTOWN* MOCLDY    79  70  73 S10G16    29.98R
SLIDELL        CLOUDY    77  75  93 SE7       29.96R
BATON ROUGE    CLOUDY    78  74  87 SE6       29.96R
BOOTHVILLE     CLOUDY    79  77  94 SE5       30.00R
BELLE CHASSE   LGT RAIN  77  71  82 SE14      29.96R
BOGALUSA*        N/A     77  73  86 CALM      29.97F
GALLIANO*      NOT AVBL
NEW ROADS*     FAIR      77  73  86 SE5       29.96R
GONZALES*      FAIR      77  77  99 CALM      29.95R
HAMMOND*       CLOUDY    77  73  88 CALM      29.98R
HOUMA*         CLOUDY    75  73  92 CALM      29.96R
PORT FOURCHON* CLEAR     81  73  78 SE9       30.00R

$$

LAZ041-044-053-054-300300-
SOUTHWEST LOUISIANA

CITY           SKY/WX    TMP DP  RH WIND       PRES   REMARKS
LAKE CHARLES   LGT RAIN  76  74  93 SE10      29.93R
LAFAYETTE      CLOUDY    78  74  87 S5        29.96R
PATTERSON        N/A     75  73  94 SE3       29.98R
SALT POINT       N/A     80  76  87 CALM      29.95R
NEW IBERIA     CLOUDY    77  73  87 S5        29.97R
CHENAULT AIRPK NOT AVBL

$$

LAZ027-028-300300-
CENTRAL LOUISIANA

CITY           SKY/WX    TMP DP  RH WIND       PRES   REMARKS
FORT POLK      CLOUDY    76  75  97 E6        29.93S
ALEXANDRIA INT CLOUDY    78  75  90 SE6       29.92S
ALEXANDRIA     CLOUDY    80  75  84 CALM      29.94S

$$

LAZ001-002-300300-
NORTHWEST LOUISIANA

CITY           SKY/WX    TMP DP  RH WIND       PRES   REMARKS
SHREVEPORT     CLOUDY    79  73  82 CALM      29.94R
BARKSDALE AFB  CLOUDY    75  73  94 NW6       29.94S
DTN SHREVEPORT TSTM      74  72  93 N3        29.94S FOG

$$

LAZ014-016-300300-
NORTHEAST LOUISIANA

CITY           SKY/WX    TMP DP  RH WIND       PRES   REMARKS
MONROE         CLOUDY    82  73  74 S6        29.94S
TALLULAH       MOCLDY    80  72  76 S3        29.93S

$$




USA.gov is the U.S. government's official web portal to all federal, state and local government web resources and services.